Location: Gollag?dem
(16.8053°N, 80.8024°E)
Time: 10:01:26
(UTC+00:00)

ALOS - Pass Details

Date: 13 August 2020
Orbit: 683 x 685 km, 97.9° (Epoch: 18 September)

Event Time Altitude Azimuth Distance (km) Brightness Sun altitude
Rises 23:19:27 0° 6° (N) 3,040 6.0 -14.7°
Reaches altitude 10° 23:21:42 10° 3° (N) 2,123 5.1 -14.2°
Maximum altitude 23:26:17 63° 283° (WNW) 760 2.2 -13.2°
Drops below altitude 10° 23:30:53 10° 202° (SSW) 2,119 4.4 -12.1°
Enters shadow 23:32:38 - 199° (SSW) 2,828 5.1 -11.7°
